Regional Weather Roundup
Issued by NWS

Home | Current Version | Previous Version | Graphics & Text | Print | Product List | Glossary On
Versions: 1 2 3 4 5 6 7 8 9 10 11 12 13 14 15 16 17 18 19 20 21 22 23 24 25 26 27 28 29 30 31 32 33 34 35 36 37 38 39 40 41 42 43 44 45 46 47 48 49 50
000
ASUS45 KBOI 190410
RWRID
WEATHER ROUNDUP FOR IDAHO
NATIONAL WEATHER SERVICE BOISE ID
1000 PM MDT SAT APR 18 2015

NOTE: "FAIR" INDICATES FEW OR NO CLOUDS BELOW 12000 FEET
WITH NO SIGNIFICANT WEATHER AND/OR OBSTRUCTIONS TO VISIBILITY

IDZ012-014-190500-
SOUTHWEST IDAHO


CITY           SKY/WX    TMP DP  RH WIND       PRES   REMARKS
BOISE          CLEAR     61  22  22 NW15      30.05R
CALDWELL       CLEAR     59  27  29 NW14      30.09R
MOUNTAIN HOME  CLEAR     58  20  23 W20       30.02R
$$

IDZ016-017-190500-
SOUTHCENTRAL IDAHO


CITY           SKY/WX    TMP DP  RH WIND       PRES   REMARKS
BURLEY         CLEAR     51  28  41 SW12      30.03R
JEROME         CLEAR     54  25  32 SW13      30.03R
TWIN FALLS     CLEAR     54  23  30 S16       30.04R
$$

IDZ019>023-190500-
SOUTHEAST IDAHO


CITY           SKY/WX    TMP DP  RH WIND       PRES   REMARKS
IDAHO FALLS    CLEAR     53  27  36 NE13      30.06R
POCATELLO      CLEAR     51  27  39 S12       30.04R
REXBURG        CLEAR     50  28  42 NE16G22   30.09R
$$

IDZ006-010-011-018-031-032-190500-
CENTRAL IDAHO MOUNTAINS


CITY           SKY/WX    TMP DP  RH WIND       PRES   REMARKS
MCCALL         CLEAR     48  17  29 N9        30.16R
HAILEY         CLEAR     59  16  18 NW5       30.07R
STANLEY          N/A     37  19  48 S3        30.17R
SALMON         CLEAR     50  18  27 NE7       30.10R
CHALLIS        CLEAR     46  15  28 NW6       30.11R
$$

IDZ002-004-006-007-026-190500-
NORTHERN IDAHO


CITY           SKY/WX    TMP DP  RH WIND       PRES   REMARKS
LEWISTON       LGT RAIN  58  22  24 W6        30.16R
LOWELL           N/A     48  40  73 CALM      30.19R
COEUR D`ALENE  CLEAR     54  23  30 CALM      30.16S
MULLAN PASS    CLEAR     41  17  38 NW7       30.20R
$$



USA.gov is the U.S. government's official web portal to all federal, state and local government web resources and services.